TimeCST,TemperatureF,Dew PointF,Humidity,Sea Level PressureIn,VisibilityMPH,Wind Direction,Wind SpeedMPH,Gust SpeedMPH,PrecipitationIn,Events,Conditions,WindDirDegrees,DateUTC
12:53 AM,27.0,19.0,72,30.38,10.0,NNW,5.8,-,N/A,,Clear,340,2012-01-18 06:53:00
1:53 AM,27.0,18.0,69,30.38,10.0,North,9.2,-,N/A,,Clear,350,2012-01-18 07:53:00
2:53 AM,26.1,18.0,71,30.36,10.0,North,9.2,-,N/A,,Clear,360,2012-01-18 08:53:00
3:53 AM,25.0,17.1,72,30.38,10.0,North,5.8,-,N/A,,Clear,350,2012-01-18 09:53:00
4:53 AM,24.1,16.0,71,30.38,10.0,NNE,8.1,-,N/A,,Clear,20,2012-01-18 10:53:00
5:53 AM,23.0,16.0,74,30.38,10.0,North,4.6,-,N/A,,Clear,10,2012-01-18 11:53:00
6:53 AM,21.9,16.0,78,30.38,10.0,NNE,6.9,-,N/A,,Clear,20,2012-01-18 12:53:00
7:53 AM,23.0,15.1,72,30.38,10.0,NNE,5.8,-,N/A,,Clear,20,2012-01-18 13:53:00
8:53 AM,25.0,16.0,69,30.39,10.0,NNE,5.8,-,N/A,,Clear,30,2012-01-18 14:53:00
9:53 AM,26.1,17.1,69,30.37,10.0,East,5.8,-,N/A,,Clear,90,2012-01-18 15:53:00
11:53 AM,28.9,18.0,64,30.30,10.0,Calm,Calm,-,N/A,,Mostly Cloudy,0,2012-01-18 17:53:00
12:53 PM,30.9,21.0,67,30.26,10.0,SW,5.8,-,N/A,,Overcast,220,2012-01-18 18:53:00
1:53 PM,30.9,21.0,67,30.22,10.0,SSW,5.8,-,N/A,,Overcast,210,2012-01-18 19:53:00
2:53 PM,33.1,21.9,64,30.20,10.0,South,9.2,-,N/A,,Clear,190,2012-01-18 20:53:00
3:53 PM,32.0,21.0,64,30.16,10.0,South,4.6,-,N/A,,Clear,180,2012-01-18 21:53:00
4:53 PM,32.0,23.0,69,30.15,10.0,Variable,5.8,-,N/A,,Clear,0,2012-01-18 22:53:00
5:53 PM,30.9,23.0,72,30.11,10.0,South,10.4,-,N/A,,Clear,180,2012-01-18 23:53:00
6:53 PM,30.9,24.1,76,30.12,10.0,Calm,Calm,-,N/A,,Clear,0,2012-01-19 00:53:00
7:53 PM,28.9,25.0,85,30.11,8.0,SE,4.6,-,N/A,,Clear,140,2012-01-19 01:53:00
8:53 PM,30.0,25.0,82,30.08,8.0,SSE,5.8,-,N/A,,Clear,160,2012-01-19 02:53:00
9:53 PM,30.0,25.0,82,30.09,10.0,Calm,Calm,-,N/A,,Clear,0,2012-01-19 03:53:00
10:53 PM,30.0,25.0,82,30.08,10.0,South,3.5,-,N/A,,Clear,180,2012-01-19 04:53:00
11:53 PM,30.9,26.1,82,30.08,10.0,Calm,Calm,-,N/A,,Clear,0,2012-01-19 05:53:00